Tracking 26922 objects as of 31-Jan-2023
HD Live streaming from Space Station
objects crossing your sky now

COSMOS 768

Track COSMOS 768 now!
10-day predictions
COSMOS 768 is classified as:


NORAD ID: 8292
Int'l Code: 1975-086H
Perigee: 1,477.6 km
Apogee: 1,498.4 km
Inclination: 74.0 °
Period: 115.6 minutes
Semi major axis: 7859 km
RCS: 0.6843 m2 (medium)
Launch date: September 17, 1975
Source: Commonwealth of Independent States (former USSR) (CIS)
Launch site: PLESETSK MISSILE AND SPACE COMPLEX (PKMTR)
Your satellite tracking list
Your tracking list is empty




NASA's NSSDC Master Catalog

Two Line Element Set (TLE):
1 08292U 75086H   23031.18018064 -.00000019  00000-0 -20867-4 0  9993
2 08292  74.0113 302.3334 0013231 326.1844 188.1566 12.46086519154901
Source of the keplerian elements: AFSPC